sat.trackr.live / text

‹ back to catalog

UNKNOWN

NORAD 81845

UNKNOWN UNKNOWN UNKNOWN

§ Identity

Operator
Country
Launch date
Launch site
Launch vehicle
Mass (kg)
RCS (m²)

External: N2YO · Heavens-Above

§ Orbital elements

Epoch: 2026-05-24T00:17:18.974688Z

Period
96.90 min
Inclination
97.6777°
Eccentricity
0.0087493
Mean motion
14.86069331 rev/d
Perigee alt
549.1 km
Apogee alt
671.4 km
Semi-major
6,988.4 km
B*
2.1796e-4
RAAN
330.3205°
Arg perigee
130.0862°
Mean anomaly
21.1524°
Rev number
67,361

§ Raw data

UNKNOWN1 81845U          26144.01202517  .00001988  00000+0  21796-3 0  99942 81845  97.6777 330.3205 0087493 130.0862  21.1524 14.86069331673617

JSON: /api/v1/satellites/81845 · /tle

For live sub-satellite position, see the globe view (requires WebGL).

§ Visibility from observer

Set your observer location to see the next 7 days of passes ≥ 10°. The values pass through the URL so the page stays shareable.

No JS? Fill the form by hand. The geolocation button needs JavaScript.